Time,TemperatureF,DewpointF,PressureIn,WindDirection,WindDirectionDegrees,WindSpeedMPH,WindSpeedGustMPH,Humidity,HourlyPrecipIn,Conditions,Clouds,dailyrainin,SoftwareType,DateUTC
2013-01-12 00:03:00,52.0,49.1,29.68,South,191,11.2,17.2,90,0.00,,,0.00,WSDL version 423,2013-01-12 06:03:00,
2013-01-12 00:08:00,51.9,49.1,29.68,South,188,9.5,17.2,90,0.00,,,0.00,WSDL version 423,2013-01-12 06:08:00,
2013-01-12 00:13:00,51.8,49.0,29.68,SSW,205,9.0,15.4,90,0.00,,,0.00,WSDL version 423,2013-01-12 06:13:00,
2013-01-12 00:18:00,52.0,49.1,29.68,South,190,9.7,19.7,90,0.00,,,0.00,WSDL version 423,2013-01-12 06:18:00,
2013-01-12 00:23:00,51.8,49.0,29.68,SSW,197,10.3,19.7,90,0.00,,,0.00,WSDL version 423,2013-01-12 06:23:00,
2013-01-12 00:28:00,51.8,49.0,29.68,South,174,9.6,17.4,90,0.00,,,0.00,WSDL version 423,2013-01-12 06:28:00,
2013-01-12 00:33:00,51.8,49.0,29.68,South,186,7.8,14.1,91,0.00,,,0.00,WSDL version 423,2013-01-12 06:33:00,
2013-01-12 00:38:00,51.6,49.1,29.68,SW,221,8.8,14.1,91,0.00,,,0.00,WSDL version 423,2013-01-12 06:38:00,
2013-01-12 00:43:00,51.6,49.1,29.68,SSW,194,9.4,14.1,91,0.00,,,0.00,WSDL version 423,2013-01-12 06:43:00,
2013-01-12 00:48:00,51.6,49.1,29.68,South,186,8.7,14.8,91,0.00,,,0.00,WSDL version 423,2013-01-12 06:48:00,
2013-01-12 00:53:00,51.6,49.1,29.68,SSW,203,10.3,15.4,91,0.00,,,0.00,WSDL version 423,2013-01-12 06:53:00,
2013-01-12 00:58:00,51.6,49.1,29.68,South,186,12.5,22.8,91,0.00,,,0.00,WSDL version 423,2013-01-12 06:58:00,
2013-01-12 01:03:00,51.7,49.0,29.68,SSW,199,11.1,22.8,90,0.00,,,0.00,WSDL version 423,2013-01-12 07:03:00,
2013-01-12 01:08:00,51.8,49.0,29.68,South,188,9.0,19.9,90,0.00,,,0.00,WSDL version 423,2013-01-12 07:08:00,
2013-01-12 01:13:00,51.7,49.0,29.68,South,189,10.3,14.5,91,0.00,,,0.00,WSDL version 423,2013-01-12 07:13:00,
2013-01-12 01:18:00,51.8,49.0,29.68,SSW,199,10.8,17.7,90,0.00,,,0.00,WSDL version 423,2013-01-12 07:18:00,
2013-01-12 01:23:00,51.8,49.0,29.68,South,188,9.1,17.7,90,0.00,,,0.00,WSDL version 423,2013-01-12 07:23:00,
2013-01-12 01:28:00,51.8,49.0,29.68,SSW,195,9.6,15.4,90,0.00,,,0.00,WSDL version 423,2013-01-12 07:28:00,
2013-01-12 01:33:00,51.8,49.0,29.68,South,188,9.1,15.4,90,0.00,,,0.00,WSDL version 423,2013-01-12 07:33:00,
2013-01-12 01:38:00,51.8,49.0,29.68,South,185,9.9,18.1,90,0.00,,,0.00,WSDL version 423,2013-01-12 07:38:00,
2013-01-12 01:44:00,51.8,49.0,29.68,SSW,196,11.0,18.8,90,0.00,,,0.00,WSDL version 423,2013-01-12 07:44:00,
2013-01-12 01:49:00,51.8,49.0,29.68,SSW,198,10.9,18.8,90,0.00,,,0.00,WSDL version 423,2013-01-12 07:49:00,
2013-01-12 01:54:00,51.7,48.9,29.68,South,190,8.0,16.3,90,0.00,,,0.00,WSDL version 423,2013-01-12 07:54:00,
2013-01-12 01:59:00,51.8,49.0,29.68,SSW,195,9.2,14.8,90,0.00,,,0.00,WSDL version 423,2013-01-12 07:59:00,
2013-01-12 02:04:00,51.8,49.0,29.68,SSW,198,8.9,14.8,90,0.00,,,0.00,WSDL version 423,2013-01-12 08:04:00,
2013-01-12 02:09:00,51.8,49.0,29.71,South,188,10.6,13.6,90,0.00,,,0.00,WSDL version 423,2013-01-12 08:09:00,
2013-01-12 02:14:00,51.8,49.0,29.71,South,178,11.0,19.9,90,0.00,,,0.00,WSDL version 423,2013-01-12 08:14:00,
2013-01-12 02:19:00,51.8,49.0,29.71,South,188,9.2,19.9,90,0.00,,,0.00,WSDL version 423,2013-01-12 08:19:00,
2013-01-12 02:24:00,51.8,48.8,29.71,SSW,203,7.2,17.7,89,0.00,,,0.00,WSDL version 423,2013-01-12 08:24:00,
2013-01-12 02:29:00,51.8,48.7,29.71,South,180,9.8,13.2,89,0.00,,,0.00,WSDL version 423,2013-01-12 08:29:00,
2013-01-12 02:34:00,51.8,48.7,29.71,South,186,8.1,12.5,89,0.00,,,0.00,WSDL version 423,2013-01-12 08:34:00,
2013-01-12 02:39:00,51.8,48.7,29.71,South,180,8.6,16.6,89,0.00,,,0.00,WSDL version 423,2013-01-12 08:39:00,
2013-01-12 02:44:00,51.8,48.7,29.71,SSW,203,9.5,16.6,90,0.00,,,0.00,WSDL version 423,2013-01-12 08:44:00,
2013-01-12 02:49:00,51.8,48.7,29.71,South,184,10.5,15.4,89,0.00,,,0.00,WSDL version 423,2013-01-12 08:49:00,
2013-01-12 02:54:00,51.8,48.7,29.71,South,183,10.9,15.4,89,0.00,,,0.00,WSDL version 423,2013-01-12 08:54:00,
2013-01-12 02:59:00,51.9,48.7,29.71,South,190,8.9,15.2,89,0.00,,,0.00,WSDL version 423,2013-01-12 08:59:00,
2013-01-12 03:04:00,51.8,48.7,29.71,South,184,6.8,19.7,89,0.00,,,0.00,WSDL version 423,2013-01-12 09:04:00,
2013-01-12 03:09:00,51.8,48.7,29.71,South,191,9.2,19.7,89,0.00,,,0.00,WSDL version 423,2013-01-12 09:09:00,
2013-01-12 03:14:00,51.8,48.7,29.71,SSW,211,9.0,16.3,89,0.00,,,0.00,WSDL version 423,2013-01-12 09:14:00,
2013-01-12 03:19:00,51.7,48.7,29.71,South,180,9.9,12.1,89,0.00,,,0.00,WSDL version 423,2013-01-12 09:19:00,
2013-01-12 03:24:00,51.7,48.7,29.71,South,180,10.4,16.6,89,0.00,,,0.00,WSDL version 423,2013-01-12 09:24:00,
2013-01-12 03:29:00,51.6,48.8,29.71,South,188,8.8,16.6,90,0.00,,,0.00,WSDL version 423,2013-01-12 09:29:00,
2013-01-12 03:34:00,51.6,48.8,29.71,SSW,198,7.8,13.0,90,0.00,,,0.00,WSDL version 423,2013-01-12 09:34:00,
2013-01-12 03:39:00,51.6,48.8,29.71,South,186,6.7,13.2,90,0.00,,,0.00,WSDL version 423,2013-01-12 09:39:00,
2013-01-12 03:44:00,51.6,48.8,29.71,South,184,8.4,16.6,90,0.00,,,0.00,WSDL version 423,2013-01-12 09:44:00,
2013-01-12 03:49:00,51.6,48.8,29.71,South,186,8.4,16.6,90,0.00,,,0.00,WSDL version 423,2013-01-12 09:49:00,
2013-01-12 03:54:00,51.4,48.6,29.71,SSW,194,7.0,12.5,90,0.00,,,0.00,WSDL version 423,2013-01-12 09:54:00,
2013-01-12 03:59:00,51.4,48.6,29.71,South,191,7.0,12.5,90,0.00,,,0.00,WSDL version 423,2013-01-12 09:59:00,
2013-01-12 04:04:00,51.4,48.6,29.71,SSW,199,10.8,16.8,90,0.00,,,0.00,WSDL version 423,2013-01-12 10:04:00,
2013-01-12 04:09:00,51.4,48.6,29.71,SSW,194,8.0,16.8,90,0.00,,,0.00,WSDL version 423,2013-01-12 10:09:00,
2013-01-12 04:14:00,51.4,48.6,29.71,South,183,6.4,13.2,90,0.00,,,0.00,WSDL version 423,2013-01-12 10:14:00,
2013-01-12 04:19:00,51.3,48.4,29.71,SSW,196,8.1,11.2,90,0.00,,,0.00,WSDL version 423,2013-01-12 10:19:00,
2013-01-12 04:24:00,51.2,48.4,29.71,South,190,6.9,12.3,90,0.00,,,0.00,WSDL version 423,2013-01-12 10:24:00,
2013-01-12 04:29:00,51.1,48.3,29.71,SSW,195,7.3,12.3,90,0.00,,,0.00,WSDL version 423,2013-01-12 10:29:00,
2013-01-12 04:34:00,51.1,48.4,29.71,SSW,196,6.3,11.9,91,0.00,,,0.00,WSDL version 423,2013-01-12 10:34:00,
2013-01-12 04:39:00,51.1,48.6,29.71,SSW,199,7.2,10.5,91,0.00,,,0.00,WSDL version 423,2013-01-12 10:39:00,
2013-01-12 04:44:00,51.2,48.7,29.71,SSW,199,5.9,11.9,91,0.00,,,0.00,WSDL version 423,2013-01-12 10:44:00,
2013-01-12 04:49:00,51.2,48.7,29.71,SSW,203,7.3,11.9,91,0.00,,,0.00,WSDL version 423,2013-01-12 10:49:00,
2013-01-12 04:54:00,51.2,48.6,29.74,South,188,7.8,17.0,90,0.00,,,0.00,WSDL version 423,2013-01-12 10:54:00,
2013-01-12 04:59:00,51.1,48.3,29.74,SSW,199,8.4,17.0,90,0.00,,,0.00,WSDL version 423,2013-01-12 10:59:00,
2013-01-12 05:04:00,51.1,48.3,29.74,SW,214,6.9,16.1,90,0.00,,,0.00,WSDL version 423,2013-01-12 11:04:00,
2013-01-12 05:09:00,51.2,48.4,29.71,SSW,203,7.1,9.8,90,0.00,,,0.00,WSDL version 423,2013-01-12 11:09:00,
2013-01-12 05:15:00,51.3,48.4,29.71,SSW,211,6.6,11.0,90,0.00,,,0.00,WSDL version 423,2013-01-12 11:15:00,
2013-01-12 05:20:00,51.3,48.4,29.71,SSW,199,6.6,11.0,90,0.00,,,0.00,WSDL version 423,2013-01-12 11:20:00,
2013-01-12 05:25:00,51.3,48.4,29.74,SSW,196,8.4,14.3,90,0.00,,,0.00,WSDL version 423,2013-01-12 11:25:00,
2013-01-12 05:30:00,51.3,48.4,29.74,SSW,199,9.2,14.8,90,0.00,,,0.00,WSDL version 423,2013-01-12 11:30:00,
2013-01-12 05:35:00,51.3,48.4,29.74,SSW,198,7.0,14.8,90,0.00,,,0.00,WSDL version 423,2013-01-12 11:35:00,
2013-01-12 05:40:00,51.3,48.4,29.74,SSW,203,6.1,9.8,90,0.00,,,0.00,WSDL version 423,2013-01-12 11:40:00,
2013-01-12 05:45:00,51.3,48.4,29.74,SSW,194,7.3,10.5,90,0.00,,,0.00,WSDL version 423,2013-01-12 11:45:00,
2013-01-12 05:50:00,51.1,48.3,29.74,SSW,208,6.0,10.5,90,0.00,,,0.00,WSDL version 423,2013-01-12 11:50:00,
2013-01-12 05:55:00,51.1,48.3,29.74,SSW,206,7.3,12.8,90,0.00,,,0.00,WSDL version 423,2013-01-12 11:55:00,
2013-01-12 06:00:00,51.0,48.2,29.74,SSW,205,6.5,12.8,90,0.00,,,0.00,WSDL version 423,2013-01-12 12:00:00,
2013-01-12 06:05:00,50.9,48.1,29.74,SSW,206,6.2,10.1,90,0.00,,,0.00,WSDL version 423,2013-01-12 12:05:00,
2013-01-12 06:10:00,50.8,48.0,29.77,SSW,206,7.2,10.3,90,0.00,,,0.00,WSDL version 423,2013-01-12 12:10:00,
2013-01-12 06:15:00,50.9,47.8,29.77,SSW,208,6.3,10.3,89,0.00,,,0.00,WSDL version 423,2013-01-12 12:15:00,
2013-01-12 06:20:00,50.9,47.8,29.77,SSW,208,5.7,10.3,89,0.00,,,0.00,WSDL version 423,2013-01-12 12:20:00,
2013-01-12 06:25:00,51.0,47.8,29.77,SSW,212,6.5,9.8,89,0.00,,,0.00,WSDL version 423,2013-01-12 12:25:00,
2013-01-12 06:30:00,50.9,47.8,29.77,SW,218,5.0,9.8,89,0.00,,,0.00,WSDL version 423,2013-01-12 12:30:00,
2013-01-12 06:35:00,50.9,47.6,29.77,SSW,203,4.9,7.8,88,0.00,,,0.00,WSDL version 423,2013-01-12 12:35:00,
2013-01-12 06:40:00,50.7,47.3,29.77,SW,221,4.6,6.5,88,0.00,,,0.00,WSDL version 423,2013-01-12 12:40:00,
2013-01-12 06:45:00,50.7,47.2,29.77,SW,214,4.7,6.9,88,0.00,,,0.00,WSDL version 423,2013-01-12 12:45:00,
2013-01-12 06:50:00,50.5,47.1,29.77,SSW,197,5.4,8.5,87,0.00,,,0.00,WSDL version 423,2013-01-12 12:50:00,
2013-01-12 06:55:00,50.5,46.8,29.80,SSW,203,5.1,8.5,86,0.00,,,0.00,WSDL version 423,2013-01-12 12:55:00,
2013-01-12 07:00:00,50.7,46.5,29.80,South,180,4.2,8.1,85,0.00,,,0.00,WSDL version 423,2013-01-12 13:00:00,
2013-01-12 07:05:00,50.7,46.1,29.80,ESE,106,3.5,8.1,84,0.00,,,0.00,WSDL version 423,2013-01-12 13:05:00,
2013-01-12 07:10:00,50.7,45.5,29.80,South,175,3.7,7.8,82,0.00,,,0.00,WSDL version 423,2013-01-12 13:10:00,
2013-01-12 07:15:00,50.7,45.1,29.80,West,270,4.3,10.1,81,0.00,,,0.00,WSDL version 423,2013-01-12 13:15:00,
2013-01-12 07:20:00,50.5,44.6,29.80,WNW,285,4.0,10.1,79,0.00,,,0.00,WSDL version 423,2013-01-12 13:20:00,
2013-01-12 07:25:00,49.5,41.6,29.83,NW,315,6.8,10.3,73,0.00,,,0.00,WSDL version 423,2013-01-12 13:25:00,
2013-01-12 07:30:00,48.3,40.5,29.83,North,5,3.9,10.3,75,0.00,,,0.00,WSDL version 423,2013-01-12 13:30:00,
2013-01-12 07:35:00,47.5,40.4,29.83,WSW,239,3.3,7.8,77,0.00,,,0.00,WSDL version 423,2013-01-12 13:35:00,
2013-01-12 07:40:00,46.9,40.0,29.83,NW,311,4.4,7.2,76,0.00,,,0.00,WSDL version 423,2013-01-12 13:40:00,
2013-01-12 07:45:00,46.1,38.7,29.83,East,79,4.8,8.7,75,0.00,,,0.00,WSDL version 423,2013-01-12 13:45:00,
2013-01-12 07:50:00,45.5,37.5,29.83,WNW,302,5.3,9.6,73,0.00,,,0.00,WSDL version 423,2013-01-12 13:50:00,
2013-01-12 07:55:00,44.9,36.4,29.85,West,273,6.7,9.6,72,0.00,,,0.00,WSDL version 423,2013-01-12 13:55:00,
2013-01-12 08:00:00,44.5,36.2,29.85,WSW,256,3.2,10.3,73,0.00,,,0.00,WSDL version 423,2013-01-12 14:00:00,
2013-01-12 08:05:00,44.1,35.6,29.85,NE,48,6.2,12.1,71,0.00,,,0.00,WSDL version 423,2013-01-12 14:05:00,
2013-01-12 08:10:00,43.7,34.8,29.85,NNW,340,5.5,12.1,71,0.00,,,0.00,WSDL version 423,2013-01-12 14:10:00,
2013-01-12 08:15:00,43.5,34.8,29.85,NNW,331,5.5,11.9,71,0.00,,,0.00,WSDL version 423,2013-01-12 14:15:00,
2013-01-12 08:20:00,43.3,34.6,29.85,NW,304,4.9,11.0,71,0.00,,,0.00,WSDL version 423,2013-01-12 14:20:00,
2013-01-12 08:25:00,43.0,34.6,29.88,WNW,288,3.7,8.7,72,0.00,,,0.00,WSDL version 423,2013-01-12 14:25:00,
2013-01-12 08:30:00,42.8,34.4,29.88,WNW,284,3.9,6.5,72,0.00,,,0.00,WSDL version 423,2013-01-12 14:30:00,
2013-01-12 08:35:00,42.5,34.5,29.88,West,266,5.0,7.8,73,0.00,,,0.00,WSDL version 423,2013-01-12 14:35:00,
2013-01-12 08:40:00,42.3,34.4,29.85,SW,214,2.1,7.8,74,0.00,,,0.00,WSDL version 423,2013-01-12 14:40:00,
2013-01-12 08:45:00,42.0,34.4,29.85,WSW,248,3.1,5.8,74,0.00,,,0.00,WSDL version 423,2013-01-12 14:45:00,
2013-01-12 08:50:00,41.8,34.3,29.85,South,174,3.5,6.7,75,0.00,,,0.00,WSDL version 423,2013-01-12 14:50:00,
2013-01-12 08:55:00,41.5,34.4,29.88,North,4,3.6,6.7,76,0.00,,,0.00,WSDL version 423,2013-01-12 14:55:00,
2013-01-12 09:00:00,41.4,34.7,29.88,North,360,3.2,6.5,77,0.00,,,0.00,WSDL version 423,2013-01-12 15:00:00,
2013-01-12 09:05:00,41.3,34.9,29.88,NNW,333,4.7,6.5,78,0.00,,,0.00,WSDL version 423,2013-01-12 15:05:00,
2013-01-12 09:10:00,41.2,35.1,29.88,West,275,4.4,6.5,79,0.00,,,0.00,WSDL version 423,2013-01-12 15:10:00,
2013-01-12 09:15:00,41.1,35.2,29.88,NW,304,5.4,8.5,80,0.00,,,0.00,WSDL version 423,2013-01-12 15:15:00,
2013-01-12 09:20:00,41.0,35.3,29.88,WNW,293,4.0,8.5,80,0.00,,,0.00,WSDL version 423,2013-01-12 15:20:00,
2013-01-12 09:25:00,41.0,35.5,29.88,North,357,4.2,7.4,81,0.00,,,0.00,WSDL version 423,2013-01-12 15:25:00,
2013-01-12 09:30:00,40.9,35.6,29.88,NNW,346,3.7,7.4,81,0.00,,,0.00,WSDL version 423,2013-01-12 15:30:00,
2013-01-12 09:35:00,40.8,35.3,29.88,West,264,3.5,6.5,80,0.00,,,0.00,WSDL version 423,2013-01-12 15:35:00,
2013-01-12 09:40:00,40.6,35.0,29.91,West,275,3.0,6.3,80,0.00,,,0.00,WSDL version 423,2013-01-12 15:40:00,
2013-01-12 09:45:00,40.6,34.9,29.91,NNW,344,3.5,6.3,80,0.00,,,0.00,WSDL version 423,2013-01-12 15:45:00,
2013-01-12 09:50:00,40.6,35.0,29.91,WNW,293,3.4,7.2,80,0.00,,,0.00,WSDL version 423,2013-01-12 15:50:00,
2013-01-12 09:54:00,40.6,35.0,29.91,West,281,2.0,7.2,80,0.00,,,0.00,WSDL version 423,2013-01-12 15:54:00,
2013-01-12 09:59:00,40.6,35.0,29.91,NW,304,2.7,5.4,80,0.00,,,0.00,WSDL version 423,2013-01-12 15:59:00,
2013-01-12 10:04:00,40.5,34.8,29.91,NNW,330,3.5,6.3,80,0.00,,,0.00,WSDL version 423,2013-01-12 16:04:00,
2013-01-12 10:09:00,40.0,34.1,29.94,North,349,4.4,8.5,79,0.00,,,0.00,WSDL version 423,2013-01-12 16:09:00,
2013-01-12 10:15:00,39.7,34.0,29.94,North,349,4.4,8.5,80,0.00,,,0.00,WSDL version 423,2013-01-12 16:15:00,
2013-01-12 10:20:00,39.4,33.9,29.94,NW,324,5.6,8.1,80,0.00,,,0.00,WSDL version 423,2013-01-12 16:20:00,
2013-01-12 10:25:00,39.2,33.6,29.91,North,351,5.6,9.6,80,0.00,,,0.00,WSDL version 423,2013-01-12 16:25:00,
2013-01-12 10:30:00,39.1,33.4,29.91,NW,315,5.2,9.6,80,0.00,,,0.00,WSDL version 423,2013-01-12 16:30:00,
2013-01-12 10:35:00,39.0,33.5,29.91,North,351,5.1,8.5,79,0.00,,,0.00,WSDL version 423,2013-01-12 16:35:00,
2013-01-12 10:40:00,39.3,33.4,29.91,NW,323,4.4,8.5,80,0.00,,,0.00,WSDL version 423,2013-01-12 16:40:00,
2013-01-12 10:45:00,39.6,33.9,29.91,NW,318,4.6,6.5,80,0.00,,,0.00,WSDL version 423,2013-01-12 16:45:00,
2013-01-12 10:50:00,40.3,34.8,29.91,North,354,5.1,6.3,80,0.00,,,0.00,WSDL version 423,2013-01-12 16:50:00,
2013-01-12 10:55:00,40.5,34.6,29.91,NW,318,3.3,6.3,79,0.00,,,0.00,WSDL version 423,2013-01-12 16:55:00,
2013-01-12 11:00:00,40.5,34.2,29.91,West,273,4.0,7.2,76,0.00,,,0.00,WSDL version 423,2013-01-12 17:00:00,
2013-01-12 11:05:00,40.4,33.4,29.91,WNW,301,3.3,7.2,76,0.00,,,0.00,WSDL version 423,2013-01-12 17:05:00,
2013-01-12 11:10:00,40.5,33.4,29.91,NW,319,4.3,7.8,75,0.00,,,0.00,WSDL version 423,2013-01-12 17:10:00,
2013-01-12 11:15:00,40.2,32.3,29.91,NNW,332,4.6,7.8,71,0.00,,,0.00,WSDL version 423,2013-01-12 17:15:00,
2013-01-12 11:20:00,39.9,31.8,29.91,NW,312,4.3,7.6,73,0.00,,,0.00,WSDL version 423,2013-01-12 17:20:00,
2013-01-12 11:25:00,39.9,32.0,29.91,NW,318,5.2,7.4,73,0.00,,,0.00,WSDL version 423,2013-01-12 17:25:00,
2013-01-12 11:30:00,39.9,32.1,29.91,NW,325,3.7,7.8,73,0.00,,,0.00,WSDL version 423,2013-01-12 17:30:00,
2013-01-12 11:35:00,39.8,31.4,29.91,NW,320,5.1,8.7,72,0.00,,,0.00,WSDL version 423,2013-01-12 17:35:00,
2013-01-12 11:39:00,40.0,32.2,29.88,NW,305,3.5,8.7,74,0.00,,,0.00,WSDL version 423,2013-01-12 17:39:00,
2013-01-12 11:44:00,40.4,32.5,29.88,WNW,299,4.9,8.5,71,0.00,,,0.00,WSDL version 423,2013-01-12 17:44:00,
2013-01-12 11:49:00,40.3,31.5,29.88,NNW,335,4.7,9.8,70,0.00,,,0.00,WSDL version 423,2013-01-12 17:49:00,
2013-01-12 11:54:00,40.1,31.3,29.91,WNW,290,3.8,9.8,71,0.00,,,0.00,WSDL version 423,2013-01-12 17:54:00,
2013-01-12 11:59:00,39.8,30.0,29.91,NNW,330,5.1,9.2,66,0.00,,,0.00,WSDL version 423,2013-01-12 17:59:00,
2013-01-12 12:04:00,39.3,29.2,29.91,NNW,338,3.6,8.1,68,0.00,,,0.00,WSDL version 423,2013-01-12 18:04:00,
2013-01-12 12:09:00,39.3,30.0,29.88,NNE,26,4.1,8.1,70,0.00,,,0.00,WSDL version 423,2013-01-12 18:09:00,
2013-01-12 12:14:00,39.3,29.4,29.88,NNW,330,4.9,6.5,67,0.00,,,0.00,WSDL version 423,2013-01-12 18:14:00,
2013-01-12 12:19:00,39.2,29.6,29.88,NW,326,5.3,9.6,68,0.00,,,0.00,WSDL version 423,2013-01-12 18:19:00,
2013-01-12 12:24:00,38.9,28.8,29.88,West,278,4.9,9.6,67,0.00,,,0.00,WSDL version 423,2013-01-12 18:24:00,
2013-01-12 12:29:00,38.8,29.4,29.88,NNW,344,4.3,7.8,69,0.00,,,0.00,WSDL version 423,2013-01-12 18:29:00,
2013-01-12 12:34:00,38.7,29.2,29.88,West,266,3.3,7.8,69,0.00,,,0.00,WSDL version 423,2013-01-12 18:34:00,
2013-01-12 12:39:00,38.7,29.7,29.88,NNW,338,4.1,7.4,70,0.00,,,0.00,WSDL version 423,2013-01-12 18:39:00,
2013-01-12 12:44:00,38.8,29.6,29.88,NW,319,2.7,5.4,71,0.00,,,0.00,WSDL version 423,2013-01-12 18:44:00,
2013-01-12 12:49:00,39.1,30.8,29.88,WSW,255,3.7,5.6,72,0.00,,,0.00,WSDL version 423,2013-01-12 18:49:00,
2013-01-12 12:54:00,39.0,30.1,29.88,WNW,284,4.8,7.4,69,0.00,,,0.00,WSDL version 423,2013-01-12 18:54:00,
2013-01-12 13:00:00,38.8,30.0,29.88,NW,304,2.8,7.4,71,0.00,,,0.00,WSDL version 423,2013-01-12 19:00:00,
2013-01-12 13:05:00,38.8,30.3,29.88,North,360,5.9,8.5,71,0.00,,,0.00,WSDL version 423,2013-01-12 19:05:00,
2013-01-12 13:10:00,38.8,30.5,29.88,NW,315,3.3,8.5,71,0.00,,,0.00,WSDL version 423,2013-01-12 19:10:00,
2013-01-12 13:14:00,38.9,30.6,29.88,North,6,5.1,8.5,72,0.00,,,0.00,WSDL version 423,2013-01-12 19:14:00,
2013-01-12 13:19:00,38.9,31.1,29.88,NW,315,4.1,8.9,74,0.00,,,0.00,WSDL version 423,2013-01-12 19:19:00,
2013-01-12 13:25:00,38.8,31.3,29.88,North,349,5.6,8.9,74,0.00,,,0.00,WSDL version 423,2013-01-12 19:25:00,
2013-01-12 13:29:00,38.6,30.8,29.88,North,360,6.0,8.5,73,0.00,,,0.00,WSDL version 423,2013-01-12 19:29:00,
2013-01-12 13:35:00,38.2,30.1,29.88,North,3,5.7,8.5,73,0.00,,,0.00,WSDL version 423,2013-01-12 19:35:00,
2013-01-12 13:39:00,37.9,29.6,29.88,North,349,4.3,8.1,71,0.00,,,0.00,WSDL version 423,2013-01-12 19:39:00,
2013-01-12 13:44:00,37.6,29.1,29.88,NW,324,3.2,7.8,71,0.00,,,0.00,WSDL version 423,2013-01-12 19:44:00,
2013-01-12 13:49:00,37.4,28.5,29.88,NNW,343,4.6,7.6,69,0.00,,,0.00,WSDL version 423,2013-01-12 19:49:00,
2013-01-12 13:54:00,37.0,28.0,29.88,NW,318,3.9,7.4,70,0.00,,,0.00,WSDL version 423,2013-01-12 19:54:00,
2013-01-12 13:59:00,36.8,27.8,29.88,NW,323,2.9,6.5,70,0.00,,,0.00,WSDL version 423,2013-01-12 19:59:00,
2013-01-12 14:04:00,36.7,27.9,29.88,NNW,334,3.6,6.5,70,0.00,,,0.00,WSDL version 423,2013-01-12 20:04:00,
2013-01-12 14:09:00,36.7,28.0,29.88,North,357,5.2,7.6,71,0.00,,,0.00,WSDL version 423,2013-01-12 20:09:00,
2013-01-12 14:14:00,36.5,28.0,29.88,North,360,5.1,7.6,71,0.00,,,0.00,WSDL version 423,2013-01-12 20:14:00,
2013-01-12 14:19:00,36.5,28.2,29.88,NW,309,2.7,6.3,71,0.00,,,0.00,WSDL version 423,2013-01-12 20:19:00,
2013-01-12 14:24:00,36.5,28.2,29.94,NNW,334,1.9,5.4,71,0.00,,,0.00,WSDL version 423,2013-01-12 20:24:00,
2013-01-12 14:29:00,36.5,28.2,29.94,NNW,338,3.6,5.4,71,0.00,,,0.00,WSDL version 423,2013-01-12 20:29:00,
2013-01-12 14:34:00,36.3,27.9,29.94,WNW,302,3.1,5.4,72,0.00,,,0.00,WSDL version 423,2013-01-12 20:34:00,
2013-01-12 14:39:00,36.3,28.2,29.91,NW,309,3.1,5.4,72,0.00,,,0.00,WSDL version 423,2013-01-12 20:39:00,
2013-01-12 14:44:00,36.2,28.1,29.91,NW,315,2.8,5.8,72,0.00,,,0.00,WSDL version 423,2013-01-12 20:44:00,
2013-01-12 14:49:00,36.1,28.0,29.91,NNW,334,2.7,5.8,72,0.00,,,0.00,WSDL version 423,2013-01-12 20:49:00,
2013-01-12 14:54:00,36.1,28.2,29.91,NNW,345,3.1,6.3,73,0.00,,,0.00,WSDL version 423,2013-01-12 20:54:00,
2013-01-12 14:59:00,36.1,28.3,29.91,NNW,345,4.3,6.3,72,0.00,,,0.00,WSDL version 423,2013-01-12 20:59:00,
2013-01-12 15:04:00,36.0,27.9,29.91,NNW,338,3.4,6.0,72,0.00,,,0.00,WSDL version 423,2013-01-12 21:04:00,
2013-01-12 15:09:00,36.0,27.8,29.94,WNW,298,3.6,6.0,71,0.00,,,0.00,WSDL version 423,2013-01-12 21:09:00,
2013-01-12 15:14:00,36.0,27.7,29.94,NW,315,3.6,6.0,72,0.00,,,0.00,WSDL version 423,2013-01-12 21:14:00,
2013-01-12 15:19:00,36.0,27.8,29.94,NNW,330,3.8,5.8,70,0.00,,,0.00,WSDL version 423,2013-01-12 21:19:00,
2013-01-12 15:24:00,35.8,27.3,29.94,NW,319,4.2,6.0,72,0.00,,,0.00,WSDL version 423,2013-01-12 21:24:00,
2013-01-12 15:29:00,35.7,27.5,29.94,NNW,338,4.1,6.3,72,0.00,,,0.00,WSDL version 423,2013-01-12 21:29:00,
2013-01-12 15:34:00,35.5,27.6,29.94,NW,308,3.7,6.7,73,0.00,,,0.00,WSDL version 423,2013-01-12 21:34:00,
2013-01-12 15:39:00,35.3,27.4,29.91,NNW,347,4.0,7.6,72,0.00,,,0.00,WSDL version 423,2013-01-12 21:39:00,
2013-01-12 15:44:00,35.1,27.0,29.91,North,353,3.4,7.6,72,0.00,,,0.00,WSDL version 423,2013-01-12 21:44:00,
2013-01-12 15:49:00,34.9,26.6,29.91,NNW,335,4.0,6.0,71,0.00,,,0.00,WSDL version 423,2013-01-12 21:49:00,
2013-01-12 15:54:00,34.7,25.8,29.91,North,349,4.7,9.8,68,0.00,,,0.00,WSDL version 423,2013-01-12 21:54:00,
2013-01-12 15:59:00,34.5,25.2,29.91,North,6,5.5,9.8,69,0.00,,,0.00,WSDL version 423,2013-01-12 21:59:00,
2013-01-12 16:04:00,34.4,25.2,29.91,NW,325,4.9,7.8,68,0.00,,,0.00,WSDL version 423,2013-01-12 22:04:00,
2013-01-12 16:09:00,34.2,25.1,29.94,NW,312,4.0,7.2,69,0.00,,,0.00,WSDL version 423,2013-01-12 22:09:00,
2013-01-12 16:14:00,34.0,24.7,29.94,NNW,341,5.7,7.8,68,0.00,,,0.00,WSDL version 423,2013-01-12 22:14:00,
2013-01-12 16:19:00,33.7,24.5,29.94,NNW,344,5.0,10.1,69,0.00,,,0.00,WSDL version 423,2013-01-12 22:19:00,
2013-01-12 16:24:00,33.5,24.5,29.91,NNW,342,6.1,11.0,69,0.00,,,0.00,WSDL version 423,2013-01-12 22:24:00,
2013-01-12 16:29:00,33.3,24.4,29.91,NW,321,4.7,11.9,70,0.00,,,0.00,WSDL version 423,2013-01-12 22:29:00,
2013-01-12 16:34:00,33.1,24.9,29.91,North,360,6.5,11.9,72,0.00,,,0.00,WSDL version 423,2013-01-12 22:34:00,
2013-01-12 16:39:00,33.1,25.3,29.88,NNW,344,3.9,8.9,73,0.00,,,0.00,WSDL version 423,2013-01-12 22:39:00,
2013-01-12 16:44:00,32.9,25.6,29.88,North,5,5.0,8.5,75,0.00,,,0.00,WSDL version 423,2013-01-12 22:44:00,
2013-01-12 16:49:00,32.9,25.8,29.88,North,10,5.5,8.1,75,0.00,,,0.00,WSDL version 423,2013-01-12 22:49:00,
2013-01-12 16:54:00,32.7,25.9,29.88,North,350,5.6,8.9,76,0.00,,,0.00,WSDL version 423,2013-01-12 22:54:00,
2013-01-12 16:59:00,32.7,26.2,29.88,North,353,5.4,8.9,77,0.00,,,0.00,WSDL version 423,2013-01-12 22:59:00,
2013-01-12 17:04:00,32.6,26.2,29.88,North,350,4.9,8.5,77,0.00,,,0.00,WSDL version 423,2013-01-12 23:04:00,
2013-01-12 17:09:00,32.5,26.1,29.88,North,360,5.5,8.5,77,0.00,,,0.00,WSDL version 423,2013-01-12 23:09:00,
2013-01-12 17:14:00,32.5,26.4,29.88,North,353,4.5,8.1,78,0.00,,,0.00,WSDL version 423,2013-01-12 23:14:00,
2013-01-12 17:19:00,32.4,26.3,29.88,North,11,5.5,10.1,78,0.00,,,0.00,WSDL version 423,2013-01-12 23:19:00,
2013-01-12 17:24:00,32.4,26.5,29.85,NNE,14,7.5,10.3,78,0.00,,,0.00,WSDL version 423,2013-01-12 23:24:00,
2013-01-12 17:29:00,32.2,25.9,29.85,North,360,6.4,11.0,77,0.00,,,0.00,WSDL version 423,2013-01-12 23:29:00,
2013-01-12 17:34:00,32.2,26.1,29.85,North,360,8.0,11.0,78,0.00,,,0.00,WSDL version 423,2013-01-12 23:34:00,
2013-01-12 17:39:00,32.1,26.3,29.88,North,360,6.6,10.5,77,0.00,,,0.00,WSDL version 423,2013-01-12 23:39:00,
2013-01-12 17:44:00,31.9,26.3,29.88,NNW,338,6.4,9.8,77,0.00,,,0.00,WSDL version 423,2013-01-12 23:44:00,
2013-01-12 17:49:00,31.8,26.0,29.88,North,360,6.3,9.8,76,0.00,,,0.00,WSDL version 423,2013-01-12 23:49:00,
2013-01-12 17:55:00,31.6,25.5,29.88,North,360,6.6,9.8,75,0.00,,,0.00,WSDL version 423,2013-01-12 23:55:00,
2013-01-12 18:00:00,31.6,25.4,29.88,North,349,5.5,8.7,75,0.00,,,0.00,WSDL version 423,2013-01-13 00:00:00,
2013-01-12 18:05:00,31.5,25.5,29.88,NNE,15,5.3,7.6,76,0.00,,,0.00,WSDL version 423,2013-01-13 00:05:00,
2013-01-12 18:10:00,31.5,25.5,29.91,North,360,6.5,9.8,76,0.00,,,0.00,WSDL version 423,2013-01-13 00:10:00,
2013-01-12 18:15:00,31.3,25.1,29.91,North,8,5.4,9.8,75,0.00,,,0.00,WSDL version 423,2013-01-13 00:15:00,
2013-01-12 18:20:00,31.3,25.1,29.91,NNW,343,7.2,9.6,75,0.00,,,0.00,WSDL version 423,2013-01-13 00:20:00,
2013-01-12 18:25:00,31.1,25.0,29.91,North,8,5.6,9.6,76,0.00,,,0.00,WSDL version 423,2013-01-13 00:25:00,
2013-01-12 18:30:00,31.1,25.3,29.91,NNW,345,4.8,8.5,77,0.00,,,0.00,WSDL version 423,2013-01-13 00:30:00,
2013-01-12 18:35:00,31.1,25.5,29.91,North,352,6.1,8.7,77,0.00,,,0.00,WSDL version 423,2013-01-13 00:35:00,
2013-01-12 18:40:00,30.9,25.6,29.88,North,356,5.4,8.7,78,0.00,,,0.00,WSDL version 423,2013-01-13 00:40:00,
2013-01-12 18:45:00,30.9,25.8,29.88,North,3,6.6,10.5,80,0.00,,,0.00,WSDL version 423,2013-01-13 00:45:00,
2013-01-12 18:50:00,30.8,26.0,29.88,North,360,7.3,10.5,80,0.00,,,0.00,WSDL version 423,2013-01-13 00:50:00,
2013-01-12 18:55:00,30.7,25.9,29.88,NNE,14,6.6,9.6,80,0.00,,,0.00,WSDL version 423,2013-01-13 00:55:00,
2013-01-12 19:01:00,30.6,25.7,29.88,NNW,338,9.6,13.0,79,0.00,,,0.00,WSDL version 423,2013-01-13 01:01:00,
2013-01-12 19:06:00,30.4,25.2,29.88,North,351,9.4,13.0,78,0.00,,,0.00,WSDL version 423,2013-01-13 01:06:00,
2013-01-12 19:11:00,30.3,24.9,29.88,North,357,9.6,14.5,78,0.00,,,0.00,WSDL version 423,2013-01-13 01:11:00,
2013-01-12 19:16:00,30.2,25.0,29.88,North,356,7.8,14.5,79,0.00,,,0.00,WSDL version 423,2013-01-13 01:16:00,
2013-01-12 19:21:00,30.2,25.5,29.88,North,356,8.1,10.7,81,0.00,,,0.00,WSDL version 423,2013-01-13 01:21:00,
2013-01-12 19:26:00,30.1,25.5,29.88,North,11,8.6,11.2,81,0.00,,,0.00,WSDL version 423,2013-01-13 01:26:00,
2013-01-12 19:31:00,29.9,25.6,29.88,North,357,6.6,11.2,82,0.00,,,0.00,WSDL version 423,2013-01-13 01:31:00,
2013-01-12 19:36:00,29.6,25.4,29.88,WNW,297,5.8,10.3,82,0.00,,,0.00,WSDL version 423,2013-01-13 01:36:00,
2013-01-12 19:41:00,29.4,24.7,29.91,NNW,345,8.2,12.1,79,0.00,,,0.00,WSDL version 423,2013-01-13 01:41:00,
2013-01-12 19:46:00,29.3,24.3,29.91,NNW,341,6.0,12.1,80,0.00,,,0.00,WSDL version 423,2013-01-13 01:46:00,
2013-01-12 19:51:00,29.1,24.2,29.91,NNW,346,7.3,11.4,80,0.00,,,0.00,WSDL version 423,2013-01-13 01:51:00,
2013-01-12 19:56:00,29.0,24.0,29.91,NNW,341,9.5,13.0,79,0.00,,,0.00,WSDL version 423,2013-01-13 01:56:00,
2013-01-12 20:01:00,28.8,23.8,29.91,North,356,6.8,13.0,79,0.00,,,0.00,WSDL version 423,2013-01-13 02:01:00,
2013-01-12 20:06:00,28.7,23.8,29.91,North,352,9.7,13.9,80,0.00,,,0.00,WSDL version 423,2013-01-13 02:06:00,
2013-01-12 20:11:00,28.6,23.7,29.91,North,360,5.9,13.9,80,0.00,,,0.00,WSDL version 423,2013-01-13 02:11:00,
2013-01-12 20:16:00,28.3,23.7,29.91,NNW,344,9.1,14.1,81,0.00,,,0.00,WSDL version 423,2013-01-13 02:16:00,
2013-01-12 20:21:00,28.2,24.1,29.91,North,8,8.8,14.1,83,0.00,,,0.00,WSDL version 423,2013-01-13 02:21:00,
2013-01-12 20:26:00,28.1,24.1,29.88,North,360,9.7,17.0,83,0.00,,,0.00,WSDL version 423,2013-01-13 02:26:00,
2013-01-12 20:31:00,27.9,24.0,29.88,North,354,10.7,17.0,84,0.00,,,0.00,WSDL version 423,2013-01-13 02:31:00,
2013-01-12 20:36:00,27.8,24.2,29.88,NNW,346,8.7,16.3,85,0.00,,,0.00,WSDL version 423,2013-01-13 02:36:00,
2013-01-12 20:41:00,27.6,24.3,29.88,North,3,7.0,13.2,86,0.00,,,0.00,WSDL version 423,2013-01-13 02:41:00,
2013-01-12 20:46:00,27.5,24.7,29.88,North,351,8.4,13.6,89,0.00,,,0.00,WSDL version 423,2013-01-13 02:46:00,
2013-01-12 20:51:00,27.5,25.2,29.88,North,351,8.2,13.6,90,0.00,,,0.00,WSDL version 423,2013-01-13 02:51:00,
2013-01-12 20:56:00,27.3,25.2,29.88,North,351,10.2,12.3,91,0.00,,,0.00,WSDL version 423,2013-01-13 02:56:00,
2013-01-12 21:01:00,27.4,25.4,29.88,NNW,345,6.7,12.5,92,0.00,,,0.00,WSDL version 423,2013-01-13 03:01:00,
2013-01-12 21:06:00,27.2,25.5,29.88,North,354,11.5,15.2,92,0.00,,,0.00,WSDL version 423,2013-01-13 03:06:00,
2013-01-12 21:11:00,27.1,25.4,29.85,North,4,8.0,15.9,92,0.00,,,0.00,WSDL version 423,2013-01-13 03:11:00,
2013-01-12 21:16:00,27.0,25.4,29.85,North,11,10.6,15.9,93,0.00,,,0.00,WSDL version 423,2013-01-13 03:16:00,
2013-01-12 21:21:00,26.8,25.3,29.85,NNE,19,10.3,13.2,93,0.00,,,0.00,WSDL version 423,2013-01-13 03:21:00,
2013-01-12 21:26:00,26.7,25.1,29.85,North,11,9.1,13.0,93,0.00,,,0.00,WSDL version 423,2013-01-13 03:26:00,
2013-01-12 21:31:00,26.6,25.1,29.85,North,11,7.4,12.3,93,0.00,,,0.00,WSDL version 423,2013-01-13 03:31:00,
2013-01-12 21:36:00,26.6,25.1,29.85,North,6,9.1,12.5,93,0.00,,,0.00,WSDL version 423,2013-01-13 03:36:00,
2013-01-12 21:41:00,26.6,25.2,29.85,North,6,7.8,12.5,94,0.00,,,0.00,WSDL version 423,2013-01-13 03:41:00,
2013-01-12 21:46:00,26.8,25.5,29.85,North,353,9.4,11.9,94,0.00,,,0.00,WSDL version 423,2013-01-13 03:46:00,
2013-01-12 21:51:00,26.9,25.7,29.85,NNE,17,9.7,14.5,95,0.00,,,0.00,WSDL version 423,2013-01-13 03:51:00,
2013-01-12 21:56:00,27.0,25.9,29.85,North,353,7.9,14.5,95,0.00,,,0.00,WSDL version 423,2013-01-13 03:56:00,
2013-01-12 22:01:00,27.0,25.9,29.85,North,6,9.1,13.0,95,0.00,,,0.00,WSDL version 423,2013-01-13 04:01:00,
2013-01-12 22:06:00,26.9,25.8,29.85,North,360,9.8,13.0,95,0.00,,,0.00,WSDL version 423,2013-01-13 04:06:00,
2013-01-12 22:11:00,27.0,25.9,29.85,North,354,10.4,13.9,95,0.00,,,0.00,WSDL version 423,2013-01-13 04:11:00,
2013-01-12 22:16:00,27.0,25.9,29.85,North,360,8.3,13.9,95,0.00,,,0.00,WSDL version 423,2013-01-13 04:16:00,
2013-01-12 22:21:00,26.8,25.7,29.85,North,356,8.1,11.0,95,0.00,,,0.00,WSDL version 423,2013-01-13 04:21:00,
2013-01-12 22:26:00,26.8,25.7,29.85,North,9,7.0,10.7,95,0.00,,,0.00,WSDL version 423,2013-01-13 04:26:00,
2013-01-12 22:31:00,27.0,26.1,29.85,North,354,7.0,11.9,96,0.00,,,0.00,WSDL version 423,2013-01-13 04:31:00,
2013-01-12 22:36:00,26.9,26.0,29.85,NNE,23,8.5,11.9,96,0.00,,,0.00,WSDL version 423,2013-01-13 04:36:00,
2013-01-12 22:41:00,26.8,26.1,29.85,NNW,338,8.3,10.7,97,0.00,,,0.00,WSDL version 423,2013-01-13 04:41:00,
2013-01-12 22:46:00,26.7,26.0,29.85,North,360,8.4,15.2,96,0.00,,,0.00,WSDL version 423,2013-01-13 04:46:00,
2013-01-12 22:51:00,26.8,25.9,29.85,North,360,7.7,15.2,96,0.00,,,0.00,WSDL version 423,2013-01-13 04:51:00,
2013-01-12 22:56:00,26.6,25.9,29.85,North,360,7.6,12.5,97,0.00,,,0.00,WSDL version 423,2013-01-13 04:56:00,
2013-01-12 23:02:00,26.6,25.7,29.85,North,360,7.0,11.0,96,0.00,,,0.00,WSDL version 423,2013-01-13 05:02:00,
2013-01-12 23:03:00,26.6,25.7,29.85,North,360,6.9,11.0,96,0.00,,,0.00,WSDL version 423,2013-01-13 05:03:00,
2013-01-12 23:04:00,26.6,25.7,29.85,North,360,6.8,11.0,96,0.00,,,0.00,WSDL version 423,2013-01-13 05:04:00,
2013-01-12 23:09:00,26.5,25.6,29.88,North,360,7.6,11.0,96,0.00,,,0.00,WSDL version 423,2013-01-13 05:09:00,
2013-01-12 23:11:00,26.5,25.6,29.88,North,360,7.2,8.5,96,0.00,,,0.00,WSDL version 423,2013-01-13 05:11:00,
2013-01-12 23:16:00,26.4,25.6,29.88,North,360,7.2,12.5,97,0.00,,,0.00,WSDL version 423,2013-01-13 05:16:00,
2013-01-12 23:21:00,26.1,25.3,29.88,North,360,7.0,12.5,96,0.00,,,0.00,WSDL version 423,2013-01-13 05:21:00,
2013-01-12 23:26:00,25.9,25.0,29.88,North,360,7.4,9.6,96,0.00,,,0.00,WSDL version 423,2013-01-13 05:26:00,
2013-01-12 23:31:00,25.6,24.5,29.88,North,360,7.5,9.6,95,0.00,,,0.00,WSDL version 423,2013-01-13 05:31:00,
2013-01-12 23:36:00,25.3,24.3,29.88,North,360,5.4,9.4,95,0.00,,,0.00,WSDL version 423,2013-01-13 05:36:00,
2013-01-12 23:41:00,25.3,24.3,29.88,North,0,0.0,12.5,95,0.00,,,0.00,WSDL version 423,2013-01-13 05:41:00,
2013-01-12 23:46:00,25.2,23.8,29.88,North,360,6.9,12.8,93,0.00,,,0.00,WSDL version 423,2013-01-13 05:46:00,
2013-01-12 23:51:00,25.0,23.4,29.88,North,360,7.9,12.8,93,0.00,,,0.00,WSDL version 423,2013-01-13 05:51:00,
2013-01-12 23:56:00,24.8,23.3,29.88,North,360,5.9,8.5,93,0.00,,,0.00,WSDL version 423,2013-01-13 05:56:00,